Location: Newark
(45.2500°N, 7.7167°E)
Time: 13:59:56
(UTC+00:00)

ISS - Pass Details

Date: 28 October 2019
Orbit: 412 x 421 km, 51.6° (Epoch: 12 November)

Event Time Altitude Azimuth Distance (km) Brightness Sun altitude
Exits shadow 04:43:51 25° 244° (WSW) 894 -2.6 -14.3°
Maximum altitude 04:45:42 84° 329° (NNW) 428 -3.8 -14.0°
Drops below altitude 10° 04:49:05 10° 60° (ENE) 1,507 -0.1 -13.4°
Sets 04:51:11 0° 61° (ENE) 2,372 1.1 -13.0°
